Vorticity
-1 1 0 1 -0 4 5 4 4 4 7 7 7 5 6 5 6 7 7 6 5 4 5 5 4 4 4 5 8 10 9 6 4 5 5 4 5 5 4 -3 -3 2 2
2 -0 2 -6 0 -1 6 4 5 7 6 6 6 5 6 7 8 8 7 7 6 5 5 6 6 4 4 4 5 6 9 10 7 6 5 6 3 4 5 4 3 3 1
1 0 0 4 8 7 9 6 6 6 7 6 6 6 6 7 7 7 6 7 8 8 6 6 6 7 6 5 5 5 4 8 7 9 8 6 5 4 3 3 6 2 1
-1 0 5 11 10 6 6 5 4 6 6 5 6 7 7 7 7 5 6 7 8 7 7 7 6 7 7 6 7 6 4 4 5 6 8 9 9 8 6 7 6 5 4
1 6 11 6 6 9 5 4 5 6 6 6 7 6 5 6 8 7 5 4 5 6 7 6 6 7 7 7 6 6 6 4 3 4 4 5 7 8 9 8 8 8 9
7 8 7 9 8 6 5 4 6 6 6 6 7 5 5 5 5 5 6 5 4 5 4 5 6 5 5 5 7 7 5 5 5 4 3 3 4 4 4 5 4 5 5
7 7 7 7 8 5 4 5 5 6 5 7 6 6 6 6 6 5 4 4 5 5 5 4 4 4 5 5 4 5 7 5 5 5 5 4 4 4 3 4 5 3 3
8 6 12 10 6 5 7 5 5 5 7 6 6 7 6 7 7 7 6 6 6 5 5 5 5 5 5 3 4 5 6 5 6 7 5 6 6 5 6 4 5 5 4
6 6 9 9 7 7 8 6 6 7 7 7 8 7 6 7 8 7 7 5 5 6 5 5 5 6 8 7 4 4 3 5 6 5 5 7 5 4 3 5 7 7 1
6 7 9 5 4 5 6 6 6 7 9 9 7 6 6 6 7 8 7 8 6 5 4 5 6 6 7 8 8 7 5 6 4 4 3 3 4 5 3 5 5 3 7
10 9 8 8 7 6 4 4 5 6 5 5 5 5 6 6 5 6 8 8 6 5 4 3 5 5 3 4 5 7 8 7 6 5 6 5 6 4 5 6 5 6 6
8 8 8 8 9 6 6 5 6 6 5 4 5 5 5 5 4 5 5 6 7 7 6 3 4 3 3 5 7 8 7 8 7 7 7 7 7 7 8 7 6 6 8
7 9 8 7 7 6 5 5 4 3 4 4 5 5 4 4 3 4 4 4 5 5 7 8 6 3 5 7 10 8 5 6 9 9 9 10 10 9 10 11 10 9 4
5 3 5 6 6 6 6 6 5 5 5 4 4 5 5 5 5 5 5 5 5 5 5 5 7 5 8 8 8 5 3 3 5 5 3 2 2 3 6 6 6 2 6
4 4 7 7 6 6 5 5 5 4 4 5 5 5 5 6 6 7 7 6 6 7 6 6 5 6 7 4 4 2 2 4 5 4 5 6 5 6 7 7 7 9 8
4 3 5 6 5 5 6 7 6 6 6 5 5 5 5 6 6 6 7 8 9 9 8 8 7 6 6 7 4 4 6 3 5 5 5 5 5 4 2 -0 3 4 5
4 5 5 3 2 2 1 1 2 2 3 3 3 4 4 5 5 5 5 5 6 7 8 8 7 7 8 7 7 4 3 6 5 3 3 3 4 3 1 3 3 2 3
5 5 3 2 4 4 6 6 7 7 7 8 8 8 8 7 7 6 7 7 7 7 7 8 9 7 7 9 8 6 5 6 4 4 4 3 4 3 2 3 4 3 4
3 4 6 5 3 5 8 9 9 9 8 8 9 8 8 6 5 4 4 4 5 7 8 9 9 9 10 9 9 10 10 8 7 6 4 4 4 4 5 4 5 6 4
5 4 3 4 5 4 5 5 5 5 6 6 9 5 5 8 10 9 8 7 9 11 11 10 7 7 9 8 7 7 12 12 8 10 8 7 4 5 4 7 8 6 5
6 7 8 8 7 7 6 5 6 6 7 8 7 8 6 6 7 6 5 6 6 5 8 15 10 8 9 12 9 11 9 5 9 9 9 9 9 6 7 6 6 6 5
7 7 6 7 6 5 7 7 6 8 10 8 7 7 10 10 11 10 11 11 12 12 10 4 4 5 7 7 10 6 12 17 12 10 8 9 9 9 8 7 6 3 1
9 8 6 5 7 10 9 10 12 9 8 9 9 10 0 13 15 6 9 9 3 -1 7 6 10 16 15 5 28 9 3 4 3 7 11 14 11 9 7 8 7 7 3
7 8 9 9 10 13 13 11 12 8 7 5 6 8 16 13 8 10 27 19 20 17 22 25 25 23 18 19 17 24 22 22 17 14 16 11 6 7 4 9 12 8 5
16 13 12 13 11 12 9 6 8 7 2 7 2 13 7 16 23 22 13 10 17 13 13 9 2 7 9 11 12 11 19 19 15 12 10 10 12 22 22 13 2 -3 -0
11 13 12 8 5 6 7 3 5 7 13 12 9 17 20 14 15 13 12 11 13 17 17 22 17 16 21 16 7 11 8 8 14 19 20 14 6 11 14 16 19 16 16
Height
5865 5865 5864 5862 5862 5860 5859 5857 5856 5855 5854 5853 5851 5850 5849 5849 5848 5847 5846 5845 5845 5844 5843 5842 5841 5841 5840 5840 5839 5839 5839 5838 5837 5837 5837 5837 5837 5836 5837 5836 5835 5835 5834
5863 5861 5861 5860 5858 5857 5856 5855 5854 5853 5851 5850 5849 5848 5847 5846 5846 5845 5843 5843 5842 5842 5840 5839 5839 5838 5838 5838 5836 5836 5836 5836 5835 5835 5834 5834 5834 5834 5834 5834 5833 5833 5832
5859 5859 5858 5856 5855 5853 5851 5850 5850 5850 5849 5848 5847 5845 5844 5843 5843 5842 5842 5841 5840 5839 5837 5836 5836 5835 5835 5834 5834 5833 5833 5832 5832 5832 5832 5832 5832 5831 5831 5831 5831 5831 5830
5856 5856 5855 5853 5852 5850 5848 5847 5846 5845 5845 5844 5843 5842 5841 5840 5839 5839 5838 5837 5837 5835 5834 5833 5832 5832 5831 5831 5831 5830 5829 5829 5829 5829 5829 5829 5828 5828 5828 5827 5827 5827 5828
5852 5851 5850 5849 5848 5846 5845 5844 5843 5842 5842 5840 5839 5837 5837 5836 5835 5834 5834 5833 5832 5832 5831 5830 5829 5828 5828 5827 5828 5827 5826 5826 5825 5825 5825 5825 5825 5825 5824 5824 5824 5823 5823
5848 5847 5845 5843 5842 5841 5840 5840 5839 5838 5837 5836 5835 5833 5832 5831 5830 5829 5829 5829 5827 5827 5827 5826 5825 5824 5824 5823 5824 5824 5823 5822 5822 5821 5821 5821 5821 5821 5819 5821 5820 5820 5819
5843 5842 5839 5838 5836 5835 5835 5835 5834 5834 5833 5833 5831 5830 5828 5827 5826 5824 5824 5824 5823 5822 5822 5821 5820 5819 5819 5818 5818 5819 5819 5817 5817 5817 5817 5817 5816 5816 5815 5815 5816 5816 5816
5838 5837 5834 5833 5831 5831 5831 5831 5830 5830 5829 5828 5827 5827 5825 5825 5824 5823 5821 5820 5820 5818 5816 5815 5815 5814 5814 5813 5813 5813 5813 5814 5813 5812 5812 5811 5813 5812 5811 5811 5812 5811 5811
5832 5831 5830 5829 5828 5828 5828 5827 5826 5826 5824 5824 5823 5822 5821 5820 5819 5818 5817 5816 5814 5813 5812 5812 5811 5810 5809 5809 5808 5807 5806 5807 5807 5807 5806 5806 5806 5807 5807 5807 5807 5807 5806
5825 5825 5824 5823 5823 5823 5822 5821 5822 5821 5820 5819 5817 5816 5815 5814 5813 5812 5812 5811 5810 5809 5808 5807 5806 5805 5805 5803 5803 5802 5801 5800 5801 5801 5801 5800 5801 5801 5801 5801 5801 5802 5800
5820 5819 5818 5817 5817 5817 5816 5815 5815 5814 5813 5812 5811 5810 5809 5808 5807 5806 5805 5805 5804 5803 5802 5802 5801 5800 5800 5799 5797 5796 5795 5794 5794 5793 5794 5796 5795 5795 5795 5795 5795 5795 5796
5815 5814 5813 5813 5812 5811 5810 5809 5808 5807 5806 5805 5805 5804 5803 5802 5801 5800 5799 5799 5799 5798 5797 5795 5793 5794 5794 5793 5792 5791 5789 5788 5787 5787 5786 5787 5788 5789 5789 5789 5788 5788 5789
5809 5808 5808 5806 5805 5805 5803 5801 5800 5799 5798 5798 5798 5797 5796 5795 5794 5792 5791 5790 5790 5789 5788 5788 5788 5786 5785 5785 5785 5784 5783 5783 5782 5780 5780 5780 5780 5781 5781 5782 5782 5782 5782
5803 5802 5801 5800 5799 5798 5796 5795 5794 5793 5792 5791 5789 5789 5788 5787 5786 5785 5783 5782 5781 5780 5779 5779 5779 5779 5777 5776 5775 5777 5776 5775 5775 5774 5773 5773 5774 5774 5775 5776 5776 5777 5776
5798 5797 5795 5795 5793 5792 5790 5789 5787 5785 5784 5782 5781 5779 5778 5777 5777 5776 5775 5773 5771 5770 5769 5768 5768 5768 5768 5768 5767 5766 5766 5767 5766 5766 5766 5765 5765 5766 5767 5769 5769 5769 5769
5790 5789 5788 5787 5785 5784 5782 5781 5779 5778 5776 5774 5772 5772 5771 5769 5767 5766 5765 5764 5763 5761 5760 5759 5758 5757 5756 5756 5756 5756 5755 5754 5756 5756 5756 5756 5757 5757 5758 5759 5761 5762 5762
5783 5782 5780 5778 5777 5775 5773 5771 5770 5768 5766 5765 5764 5762 5760 5759 5757 5756 5754 5753 5751 5750 5748 5747 5746 5745 5744 5743 5744 5744 5744 5744 5744 5744 5745 5746 5747 5748 5749 5749 5750 5752 5754
5776 5775 5773 5771 5769 5767 5766 5763 5761 5758 5757 5755 5753 5751 5749 5747 5745 5744 5742 5741 5741 5739 5737 5736 5734 5732 5731 5730 5730 5730 5731 5731 5732 5732 5732 5733 5735 5736 5738 5740 5741 5742 5743
5768 5767 5765 5763 5761 5759 5757 5754 5751 5749 5748 5746 5743 5740 5738 5735 5733 5731 5730 5729 5728 5727 5726 5725 5724 5722 5720 5718 5718 5718 5716 5718 5718 5719 5720 5721 5722 5724 5726 5728 5730 5732 5733
5759 5758 5755 5752 5749 5746 5744 5742 5740 5738 5736 5735 5732 5728 5726 5724 5722 5719 5717 5716 5715 5714 5712 5711 5710 5709 5707 5705 5705 5704 5705 5705 5704 5704 5706 5707 5709 5710 5712 5715 5717 5719 5721
5748 5748 5745 5742 5739 5736 5733 5731 5729 5728 5725 5722 5720 5717 5714 5711 5709 5706 5704 5702 5700 5698 5697 5696 5695 5693 5691 5689 5686 5687 5688 5690 5690 5690 5689 5690 5692 5696 5698 5702 5704 5705 5707
5737 5735 5734 5731 5728 5726 5724 5722 5720 5718 5715 5712 5708 5705 5703 5700 5696 5693 5691 5688 5685 5684 5683 5682 5679 5678 5676 5675 5673 5671 5671 5672 5672 5672 5672 5674 5675 5679 5683 5686 5690 5693 5693
5725 5722 5720 5718 5716 5714 5712 5710 5708 5706 5702 5699 5697 5694 5691 5688 5684 5681 5678 5675 5672 5670 5668 5666 5663 5661 5659 5658 5657 5656 5656 5656 5656 5656 5655 5656 5658 5662 5665 5669 5673 5676 5679
5712 5710 5708 5706 5705 5703 5701 5699 5697 5694 5692 5688 5685 5682 5678 5675 5671 5667 5664 5661 5658 5654 5652 5649 5648 5645 5642 5639 5639 5638 5638 5639 5640 5641 5638 5638 5640 5644 5646 5650 5654 5658 5662
5700 5698 5696 5695 5693 5692 5690 5688 5685 5683 5681 5677 5673 5670 5666 5661 5658 5654 5650 5646 5642 5638 5636 5633 5631 5628 5626 5624 5622 5621 5621 5622 5623 5625 5625 5621 5621 5625 5629 5633 5636 5639 5643
5688 5687 5686 5683 5681 5680 5678 5676 5675 5673 5669 5666 5662 5657 5652 5649 5645 5642 5638 5634 5629 5626 5622 5619 5616 5613 5611 5609 5608 5607 5606 5606 5606 5607 5608 5608 5606 5607 5610 5613 5617 5620 5624